{"data":{"norad_id":54774,"intl_designator":"2022-175S","name":"STARLINK-5454","alt_names":[],"object_type":"PAYLOAD","status":"ACTIVE","operator":null,"country":"US","launch_date":"2022-12-17","launch_site_code":"AFETR","launch_vehicle":null,"mission":null,"orbit_class":"UNKNOWN","rcs_meters":null,"size_class":null,"mass_kg":null,"dimensions":null,"purposes":["comms"],"wikipedia_slug":null,"has_3d_model":false,"image_url":null,"decayed_at":null,"tle_current":{"epoch":"2026-05-25T03:03:07.274592Z","epoch_age_seconds":64347,"freshness":"FRESH","line1":"1 54774U 22175S   26145.12716753  .00000117  00000+0  25428-4 0  9997","line2":"2 54774  53.2143  45.6568 0001250  91.7407 268.3729 15.08839136191672","mean_motion":15.08839136,"eccentricity":0.000125,"inclination_deg":53.2143,"raan_deg":45.6568,"arg_perigee_deg":91.7407,"mean_anomaly_deg":268.3729,"bstar":2.5428e-5,"rev_number":19167,"period_min":95.437609327758,"perigee_km":538.88129448898,"apogee_km":540.61076524645,"semimajor_km":6917.8830298677,"source":"CELESTRAK","updated_at":"2026-05-25T13:38:17.691017Z"}}}